GW1931 Weather Reports


Display with metric or nautical units.
time (UTC)temp
F
wind
direction
speed
MPH
gust
MPH
rain 1hr
in
rain 24hr
in
rain mn
in
humidity
%
barometer
mb
20260903071430 79 121 0.0 0.0 0.00 0.04 0.04 99 1015.9
20260903064426 78 129 0.0 0.0 0.00 0.04 0.04 99 1016.2
20260903061426 78 130 0.0 0.0 0.00 0.04 0.04 99 1016.3
20260903054425 78 114 0.0 0.0 0.00 0.04 0.04 99 1016.6
20260903051421 77 129 0.0 0.0 0.12 0.03 0.03 99 1017.2
20260903044420 77 140 0.0 0.0 0.00 1.05 1.05 99 1017.5
20260903041416 77 141 0.0 0.0 0.14 1.03 1.03 99 1018.1
20260903034414 77 139 0.0 0.0 0.00 0.80 0.80 99 1018.0
20260903031412 77 130 0.0 1.0 0.00 0.80 0.80 99 1017.2
20260903024407 77 133 0.0 2.0 0.00 0.80 0.80 99 1016.8
20260903021405 77 107 0.0 0.0 0.00 0.80 0.80 99 1016.2
20260903014402 77 96 1.0 5.0 0.00 0.80 0.80 99 1016.0
20260903011401 76 106 2.0 9.0 0.00 0.80 0.80 99 1015.6
20260903004400 78 146 5.0 6.0 0.00 0.78 0.78 99 1015.9
20260903001357 79 231 4.0 6.0 0.00 0.05 0.05 95 1015.8
20260902234357 81 309 4.0 7.0 0.00 0.05 0.05 91 1014.9
20260902231357 80 115 2.0 5.0 0.00 0.05 0.05 90 1014.5
20260902224357 81 237 1.0 5.0 0.17 0.04 0.04 88 1014.0
20260902221352 90 315 4.0 8.0 0.00 0.00 0.00 65 1014.4
20260902214350 95 140 2.0 3.0 0.00 0.00 0.00 58 1014.2
20260902211346 98 111 0.0 1.0 0.00 0.00 0.00 54 1014.3
20260902204341 95 228 3.0 5.0 0.00 0.00 0.00 58 1014.6
20260902201342 97 211 1.0 3.0 0.00 0.00 0.00 53 1014.7
20260902194338 96 187 1.0 2.0 0.00 0.00 0.00 56 1015.1
20260902191334 98 111 2.0 5.0 0.00 0.00 0.00 54 1015.7
20260902184329 96 126 1.0 3.0 0.00 0.00 0.00 58 1016.1
20260902181327 96 136 2.0 2.0 0.00 0.00 0.00 57 1016.5
20260902174323 97 144 2.0 5.0 0.00 0.00 0.00 60 1017.5
20260902171320 92 166 5.0 7.0 0.00 0.00 0.00 68 1018.0
20260902164320 89 126 3.0 6.0 0.00 0.00 0.00 75 1018.2
20260902161320 91 205 3.0 7.0 0.00 0.00 0.00 75 1018.5
20260902154317 87 111 1.0 3.0 0.00 0.00 0.00 83 1018.5
20260902151314 83 91 1.0 3.0 0.00 0.00 0.00 89 1018.6
20260902144309 82 99 0.0 1.0 0.00 0.00 0.00 91 1018.6
20260902141304 81 151 1.0 2.0 0.00 0.00 0.00 93 1018.3
20260902134300 80 133 0.0 1.0 0.00 0.00 0.00 93 1018.5
20260902131255 80 147 1.0 2.0 0.00 0.00 0.00 94 1017.9
20260902124251 80 137 1.0 3.0 0.00 0.00 0.00 94 1017.5
20260902121249 80 147 0.0 1.0 0.00 0.00 0.00 94 1016.8
20260902114247 80 266 2.0 3.0 0.00 0.00 0.00 93 1016.7
20260902111242 80 139 0.0 1.0 0.00 0.00 0.00 92 1016.4
20260902104237 80 120 0.0 1.0 0.00 0.00 0.00 90 1016.6
20260902101237 80 150 0.0 0.0 0.00 0.00 0.00 89 1016.8
20260902094234 80 116 1.0 1.0 0.00 0.00 0.00 88 1016.6
20260902091231 79 133 0.0 1.0 0.00 0.00 0.00 87 1016.7
20260902084226 80 131 0.0 1.0 0.00 0.00 0.00 85 1016.6
20260902081226 79 170 0.0 1.0 0.00 0.00 0.00 88 1016.5
20260902074221 78 126 0.0 1.0 0.00 0.00 0.00 89 1016.5